TimeEDT,TemperatureF,Dew PointF,Humidity,Sea Level PressureIn,VisibilityMPH,Wind Direction,Wind SpeedMPH,Gust SpeedMPH,PrecipitationIn,Events,Conditions,WindDirDegrees,DateUTC
12:51 AM,72.0,68.0,87,29.92,10.0,Calm,Calm,-,N/A,,Overcast,0,2013-08-09 04:51:00
1:23 AM,71.6,69.8,94,29.93,10.0,Calm,Calm,-,N/A,,Overcast,0,2013-08-09 05:23:00
1:51 AM,72.0,68.0,87,29.92,10.0,Calm,Calm,-,N/A,,Overcast,0,2013-08-09 05:51:00
2:08 AM,71.6,69.8,94,29.93,8.0,WNW,4.6,-,N/A,,Overcast,290,2013-08-09 06:08:00
2:51 AM,72.0,69.1,91,29.92,7.0,Calm,Calm,-,N/A,,Overcast,0,2013-08-09 06:51:00
3:51 AM,72.0,69.1,91,29.92,7.0,Calm,Calm,-,N/A,,Overcast,0,2013-08-09 07:51:00
4:51 AM,72.0,69.1,91,29.91,7.0,Calm,Calm,-,N/A,,Overcast,0,2013-08-09 08:51:00
5:51 AM,72.0,70.0,93,29.91,5.0,Calm,Calm,-,0.00,Rain,Light Rain,0,2013-08-09 09:51:00
6:28 AM,71.6,69.8,94,29.92,2.0,Calm,Calm,-,0.01,Rain,Light Rain,0,2013-08-09 10:28:00
6:51 AM,72.0,70.0,93,29.91,2.0,Calm,Calm,-,0.02,Rain,Light Rain,0,2013-08-09 10:51:00
7:51 AM,73.0,70.0,90,29.91,2.0,SSW,4.6,-,0.01,,Overcast,210,2013-08-09 11:51:00
8:51 AM,73.0,71.1,93,29.92,2.0,West,4.6,-,N/A,,Overcast,260,2013-08-09 12:51:00
9:27 AM,73.4,69.8,88,29.92,6.0,SW,5.8,-,N/A,,Overcast,230,2013-08-09 13:27:00
9:51 AM,73.9,70.0,87,29.92,7.0,WSW,4.6,-,N/A,,Overcast,250,2013-08-09 13:51:00
10:26 AM,75.2,69.8,83,29.93,10.0,WSW,5.8,-,N/A,,Mostly Cloudy,250,2013-08-09 14:26:00
10:51 AM,75.9,70.0,82,29.92,10.0,West,11.5,-,N/A,,Mostly Cloudy,280,2013-08-09 14:51:00
11:51 AM,75.0,70.0,84,29.93,10.0,WNW,12.7,-,0.01,Rain,Light Rain,290,2013-08-09 15:51:00
12:29 PM,75.2,69.8,83,29.95,10.0,NW,12.7,-,0.00,,Overcast,320,2013-08-09 16:29:00
12:42 PM,73.4,69.8,88,29.96,10.0,NW,12.7,-,0.00,,Overcast,320,2013-08-09 16:42:00
12:51 PM,73.0,68.0,84,29.95,10.0,NW,12.7,-,0.00,,Overcast,310,2013-08-09 16:51:00
1:28 PM,75.2,68.0,78,29.96,10.0,NW,12.7,-,N/A,,Overcast,310,2013-08-09 17:28:00
1:51 PM,73.9,66.9,79,29.95,10.0,NW,9.2,-,N/A,,Overcast,310,2013-08-09 17:51:00
2:51 PM,75.0,66.9,76,29.96,10.0,NW,8.1,-,N/A,,Overcast,310,2013-08-09 18:51:00
3:35 PM,75.2,66.2,73,29.96,10.0,WNW,9.2,-,0.00,,Overcast,300,2013-08-09 19:35:00
3:51 PM,73.9,66.9,79,29.95,10.0,NNW,9.2,-,0.00,,Overcast,330,2013-08-09 19:51:00
4:51 PM,75.9,66.0,71,29.96,10.0,WNW,10.4,-,N/A,,Mostly Cloudy,290,2013-08-09 20:51:00
5:15 PM,77.0,66.2,69,29.95,10.0,WNW,9.2,-,N/A,,Scattered Clouds,290,2013-08-09 21:15:00
5:51 PM,77.0,64.9,66,29.95,10.0,NW,9.2,-,N/A,,Scattered Clouds,310,2013-08-09 21:51:00
6:51 PM,77.0,64.9,66,29.96,10.0,NW,8.1,-,N/A,,Mostly Cloudy,320,2013-08-09 22:51:00
7:51 PM,75.9,64.0,67,29.97,10.0,NW,8.1,-,N/A,,Scattered Clouds,320,2013-08-09 23:51:00
8:51 PM,72.0,64.0,76,29.99,10.0,West,3.5,-,N/A,,Scattered Clouds,280,2013-08-10 00:51:00
9:51 PM,71.1,61.0,70,30.01,10.0,NW,4.6,-,N/A,,Partly Cloudy,310,2013-08-10 01:51:00
10:51 PM,66.9,62.1,84,30.03,10.0,WNW,5.8,-,N/A,,Mostly Cloudy,300,2013-08-10 02:51:00
11:51 PM,66.9,57.9,73,30.04,10.0,NW,3.5,-,N/A,,Mostly Cloudy,320,2013-08-10 03:51:00